Central Park, NY

8:30 PM EST on February 20, 2018 (GMT -0500)
Central Park

Weather History for KNYC - February, 2008

Change the Weather History Date:

Sunday, February 10, 2008

  Actual Average Record
Temperature  
Mean Temperature 30 °F 34 °F  
Max Temperature 44 °F 41 °F 61 °F (2001)
Min Temperature 15 °F 28 °F -6 °F (1899)
Degree Days  
Heating Degree Days 35 31  
Month to date heating degree days 234 313  
Since 1 July heating degree days 2703 3002  
Cooling Degree Days 0 0  
Month to date cooling degree days 0 0  
Year to date cooling degree days 0 0  
Moisture  
Dew Point 20 °F    
Average Humidity 58    
Maximum Humidity 92    
Minimum Humidity 24    
Precipitation  
Precipitation T in 0.11 in 2.63 in (1970)
Month to date precipitation 1.90 1.08  
Year to date precipitation 4.75 4.73  
Snow  
Snow T in 0.30 in 10.40 in (1926)
Month to date snowfall T 3.2  
Since 1 July snowfall 2.9 15.3  
Snow Depth 0.00 in    
Sea Level Pressure  
Sea Level Pressure 29.75 in    
Wind  
Wind Speed 12 mph (West)    
Max Wind Speed 28 mph    
Max Gust Speed 41 mph    
Visibility 7 miles    
Events Snow    
T = Trace of Precipitation, MM = Missing Value Source: NWS Daily Summary

Daily Weather History Graph

Daily Weather History Graph

Search for Another Location

Airport or City:

Trip Planner

Search our weather history database for the weather conditions in past years. The results will help you decide how hot, cold, wet, or windy it might be!

Date:

Astronomy

Feb. 10, 2008 Rise Set
Actual Time 6:56 AM EST 5:23 PM EST
Civil Twilight 6:28 AM EST 5:52 PM EST
Nautical Twilight 5:56 AM EST 6:24 PM EST
Astronomical Twilight 5:24 AM EST 6:56 PM EST
Moon 8:31 AM EST (2/10) 9:39 PM EST (2/10)
Length of Visible Light 11h 23m
Length of Day
10h 27m
Waxing Crescent, 15% of the Moon is Illuminated
Feb 10
Waxing Crescent
Feb 13
First Quarter
Feb 20
Full
Feb 28
Last Quarter
Mar 7
New

Hourly Weather History & Observations

Time (EST) Temp. Windchill Dew Point Humidity Pressure Visibility Wind Dir Wind Speed Gust Speed Precip Events Conditions
12:07 AM 39.2 °F - 37.4 °F 93% 29.83 in 4.0 mi Calm Calm - 0.00 in   Overcast
12:51 AM 39.9 °F - 37.0 °F 89% 29.78 in 4.0 mi Calm Calm - 0.00 in   Mostly Cloudy
1:51 AM 39.9 °F - 36.0 °F 86% 29.77 in 9.0 mi Calm Calm - N/A   Clear
2:51 AM 39.9 °F - 33.1 °F 77% 29.75 in 10.0 mi Calm Calm - N/A   Clear
3:51 AM 41.0 °F 38.0 °F 30.9 °F 67% 29.73 in 10.0 mi Variable 4.6 mph - N/A   Clear
4:51 AM 39.9 °F 36.7 °F 33.1 °F 77% 29.71 in 10.0 mi South 4.6 mph - N/A   Clear
5:51 AM 39.0 °F 36.8 °F 33.1 °F 79% 29.69 in 9.0 mi SSW 3.5 mph - N/A   Clear
6:51 AM 41.0 °F 37.1 °F 30.9 °F 67% 29.67 in 10.0 mi Variable 5.8 mph 17.3 mph N/A   Clear
7:51 AM 42.1 °F 36.6 °F 28.9 °F 60% 29.65 in 10.0 mi SW 9.2 mph - N/A   Overcast
8:51 AM 42.1 °F 34.5 °F 28.0 °F 58% 29.64 in 10.0 mi SW 15.0 mph 23.0 mph N/A   Overcast
9:51 AM 41.0 °F 35.2 °F 30.0 °F 65% 29.65 in 10.0 mi WSW 9.2 mph 25.3 mph N/A   Mostly Cloudy
10:51 AM 42.1 °F 34.9 °F 27.0 °F 55% 29.64 in 10.0 mi West 13.8 mph 23.0 mph N/A   Partly Cloudy
11:51 AM 42.1 °F 33.9 °F 18.0 °F 38% 29.63 in 10.0 mi West 17.3 mph 27.6 mph N/A   Clear
12:51 PM 43.0 °F 35.4 °F 9.0 °F 25% 29.62 in 10.0 mi West 16.1 mph 27.6 mph N/A   Clear
1:51 PM 41.0 °F 34.7 °F 10.0 °F 28% 29.59 in 10.0 mi WSW 10.4 mph 27.6 mph N/A   Partly Cloudy
2:51 PM 39.9 °F 33.4 °F 12.9 °F 33% 29.59 in 10.0 mi WSW 10.4 mph 19.6 mph N/A   Scattered Clouds
3:41 PM 35.6 °F 26.2 °F 21.2 °F 56% 29.65 in 1.5 mi West 15.0 mph 35.7 mph 0.00 in Snow Light Snow
3:46 PM 33.8 °F 23.5 °F 26.6 °F 75% 29.66 in 0.5 mi West 16.1 mph 35.7 mph 0.00 in Snow Snow
3:51 PM 32.0 °F 20.5 °F 27.0 °F 82% 29.65 in 0.2 mi West 18.4 mph 32.2 mph 0.00 in Snow Heavy Snow
4:03 PM 32.0 °F 23.6 °F 24.8 °F 75% 29.67 in 2.0 mi West 10.4 mph 21.9 mph 0.00 in Snow Light Snow
4:07 PM 32.0 °F 25.6 °F 24.8 °F 75% 29.65 in 3.0 mi Variable 6.9 mph 19.6 mph 0.00 in Snow Light Snow
4:24 PM 33.8 °F 25.3 °F 23.0 °F 65% 29.67 in 10.0 mi West 11.5 mph 27.6 mph 0.00 in   Mostly Cloudy
4:39 PM 30.2 °F 20.2 °F 24.8 °F 80% 29.72 in 0.8 mi West 12.7 mph 32.2 mph 0.00 in Snow Light Snow
4:51 PM 28.9 °F 17.3 °F 21.0 °F 72% 29.71 in 3.0 mi West 16.1 mph 29.9 mph 0.00 in Snow Light Snow
5:51 PM 27.0 °F 15.6 °F 19.0 °F 72% 29.77 in 2.0 mi West 13.8 mph 26.5 mph 0.00 in Snow Light Snow
5:58 PM 26.6 °F 14.3 °F 19.4 °F 74% 29.80 in 4.0 mi WNW 16.1 mph 20.7 mph 0.00 in Snow Light Snow
6:22 PM 26.6 °F 16.2 °F 15.8 °F 64% 29.81 in 9.0 mi West 11.5 mph 21.9 mph 0.00 in   Overcast
6:32 PM 26.6 °F 13.1 °F 15.8 °F 64% 29.84 in 1.5 mi WNW 19.6 mph 41.4 mph 0.00 in Snow Light Snow
6:41 PM 24.8 °F 14.6 °F 15.8 °F 69% 29.84 in 0.8 mi WNW 10.4 mph 34.5 mph 0.00 in Snow Light Snow
6:45 PM 24.8 °F 12.9 °F 15.8 °F 69% 29.85 in 2.5 mi West 13.8 mph 33.4 mph 0.00 in Snow Light Snow
6:51 PM 25.0 °F 14.2 °F 12.9 °F 60% 29.83 in 9.0 mi West 11.5 mph 27.6 mph 0.00 in   Mostly Cloudy
7:51 PM 23.0 °F 7.2 °F 3.9 °F 44% 29.89 in 10.0 mi WNW 23.0 mph 33.4 mph N/A   Overcast
8:51 PM 21.9 °F 6.5 °F 1.9 °F 42% 29.93 in 10.0 mi West 20.7 mph 27.6 mph N/A   Mostly Cloudy
9:51 PM 19.0 °F 2.7 °F -11.9 °F 25% 29.97 in 10.0 mi West 20.7 mph 41.4 mph N/A   Partly Cloudy
10:51 PM 17.1 °F -1.0 °F -6.0 °F 36% 30.01 in 10.0 mi West 24.2 mph 31.1 mph N/A   Scattered Clouds
11:51 PM 15.1 °F -1.6 °F -8.0 °F 36% 30.04 in 10.0 mi West 18.4 mph 31.1 mph N/A   Partly Cloudy